Weather History for KHAI - November, 2013

Change the Weather History Date:

Wednesday, November 20, 2013

  Actual Average Record
Temperature  
Mean Temperature 36 °F -  
Max Temperature 44 °F 46 °F 67 °F (1985)
Min Temperature 28 °F 29 °F 15 °F (1951)
Degree Days  
Heating Degree Days 29    
Moisture  
Dew Point 27 °F    
Average Humidity 69    
Maximum Humidity 83    
Minimum Humidity 49    
Precipitation  
Precipitation 0.00 in - - ()
Sea Level Pressure  
Sea Level Pressure 30.28 in    
Wind  
Wind Speed 6 mph (SE)    
Max Wind Speed 13 mph    
Max Gust Speed 17 mph    
Visibility 10 miles    
Events Rain    
Averages and records for this station are not official NWS values.
T = Trace of Precipitation, MM = Missing Value Source: NWS Daily Summary

Daily Weather History Graph

Daily Weather History Graph

Search for Another Location

Airport or City:

Trip Planner

Search our weather history database for the weather conditions in past years. The results will help you decide how hot, cold, wet, or windy it might be!

Date:

Astronomy

Nov. 20, 2013 Rise Set
Actual Time 7:38 AM EST 5:17 PM EST
Civil Twilight 7:08 AM EST 5:47 PM EST
Nautical Twilight 6:34 AM EST 6:21 PM EST
Astronomical Twilight 6:00 AM EST 6:54 PM EST
Moon 7:59 PM EST (11/20) 10:03 AM EST (11/20)
Length of Visible Light 10h 39m
Length of Day
9h 38m
Waning Gibbous, 91% of the Moon is Illuminated
Nov 20
Waning Gibbous
Nov 25
Last Quarter
Dec 2
New
Dec 9
First Quarter
Dec 17
Full

Hourly Weather History & Observations

Time (EST) Temp. Windchill Dew Point Humidity Pressure Visibility Wind Dir Wind Speed Gust Speed Precip Events Conditions
12:15 AM 32.9 °F 29.8 °F 25.3 °F 74% 30.35 in 10.0 mi SSE 3.5 mph - N/A   Clear
12:34 AM 32.4 °F 27.9 °F 25.2 °F 75% 30.35 in 10.0 mi SE 4.6 mph - N/A   Clear
12:55 AM 32.2 °F 28.9 °F 25.0 °F 75% 30.36 in 10.0 mi SE 3.5 mph - N/A   Clear
1:15 AM 32.0 °F 28.7 °F 25.0 °F 75% 30.36 in 10.0 mi SE 3.5 mph - N/A   Clear
1:35 AM 32.0 °F 27.5 °F 24.8 °F 75% 30.36 in 10.0 mi SE 4.6 mph - N/A   Clear
1:55 AM 31.8 °F 28.5 °F 24.3 °F 74% 30.36 in 10.0 mi ESE 3.5 mph - N/A   Clear
2:14 AM 31.1 °F 27.7 °F 23.9 °F 75% 30.36 in 10.0 mi ESE 3.5 mph - N/A   Clear
2:35 AM 30.7 °F 26.0 °F 23.9 °F 76% 30.36 in 10.0 mi ESE 4.6 mph - N/A   Clear
2:55 AM 30.2 °F 26.7 °F 24.1 °F 78% 30.36 in 10.0 mi ESE 3.5 mph - N/A   Clear
3:14 AM 30.2 °F 26.7 °F 24.3 °F 79% 30.36 in 10.0 mi SE 3.5 mph - N/A   Clear
3:35 AM 29.8 °F 23.9 °F 24.1 °F 79% 30.37 in 10.0 mi ESE 5.8 mph - N/A   Clear
3:55 AM 28.9 °F 23.9 °F 23.7 °F 81% 30.37 in 10.0 mi ESE 4.6 mph - N/A   Clear
4:14 AM 29.3 °F 24.3 °F 23.9 °F 80% 30.36 in 10.0 mi ESE 4.6 mph - N/A   Clear
4:35 AM 28.8 °F 23.7 °F 23.7 °F 81% 30.36 in 10.0 mi ESE 4.6 mph - N/A   Clear
4:55 AM 28.9 °F 23.9 °F 23.9 °F 81% 30.36 in 10.0 mi ESE 4.6 mph - N/A   Clear
5:15 AM 28.6 °F 22.4 °F 23.9 °F 83% 30.36 in 10.0 mi ESE 5.8 mph - N/A   Clear
5:35 AM 28.9 °F 23.9 °F 24.1 °F 82% 30.37 in 10.0 mi SE 4.6 mph - N/A   Clear
5:55 AM 28.8 °F 23.7 °F 23.9 °F 82% 30.37 in 10.0 mi ESE 4.6 mph - N/A   Clear
6:15 AM 28.9 °F 22.8 °F 24.3 °F 83% 30.37 in 10.0 mi ESE 5.8 mph - N/A   Clear
6:35 AM 28.9 °F 21.9 °F 24.3 °F 83% 30.36 in 10.0 mi ESE 6.9 mph - N/A   Clear
6:54 AM 29.3 °F 23.2 °F 24.6 °F 83% 30.37 in 10.0 mi SE 5.8 mph - N/A   Clear
7:15 AM 29.1 °F 22.1 °F 24.3 °F 82% 30.37 in 10.0 mi SE 6.9 mph - N/A   Clear
7:35 AM 29.3 °F 22.3 °F 24.4 °F 82% 30.37 in 10.0 mi ESE 6.9 mph - N/A   Clear
7:54 AM 29.7 °F 22.8 °F 24.4 °F 81% 30.36 in 10.0 mi ESE 6.9 mph - N/A   Clear
8:15 AM 30.6 °F 23.8 °F 24.8 °F 79% 30.36 in 10.0 mi ESE 6.9 mph - N/A   Clear
8:35 AM 31.1 °F 25.4 °F 24.8 °F 77% 30.36 in 10.0 mi ESE 5.8 mph - N/A   Clear
8:54 AM 31.6 °F 26.0 °F 25.3 °F 78% 30.36 in 10.0 mi ESE 5.8 mph - N/A   Clear
9:15 AM 32.5 °F 25.5 °F 25.9 °F 76% 30.35 in 10.0 mi ESE 8.1 mph - N/A   Clear
9:35 AM 33.1 °F 25.5 °F 26.2 °F 76% 30.34 in 10.0 mi ESE 9.2 mph - N/A   Clear
9:55 AM 33.8 °F 25.8 °F 26.4 °F 74% 30.34 in 10.0 mi ESE 10.4 mph 16.1 mph N/A   Clear
10:15 AM 35.1 °F 27.4 °F 26.8 °F 72% 30.33 in 10.0 mi SE 10.4 mph - N/A   Clear
10:35 AM 36.7 °F 28.9 °F 27.1 °F 68% 30.33 in 10.0 mi ESE 11.5 mph - N/A   Clear
10:55 AM 37.8 °F 29.8 °F 27.9 °F 67% 30.32 in 10.0 mi SE 12.7 mph 16.1 mph N/A   Clear
11:15 AM 38.8 °F 32.1 °F 27.3 °F 63% 30.32 in 10.0 mi SE 10.4 mph 17.3 mph N/A   Clear
11:34 AM 38.8 °F 31.2 °F 26.6 °F 61% 30.31 in 10.0 mi SE 12.7 mph 17.3 mph N/A   Clear
11:55 AM 39.7 °F 33.7 °F 26.6 °F 59% 30.30 in 10.0 mi SE 9.2 mph 17.3 mph N/A   Clear
12:15 PM 40.3 °F 33.4 °F 26.2 °F 57% 30.29 in 10.0 mi SE 11.5 mph - N/A   Clear
12:35 PM 41.2 °F 35.0 °F 26.2 °F 55% 30.28 in 10.0 mi SSE 10.4 mph - N/A   Clear
12:55 PM 41.9 °F 35.9 °F 25.3 °F 52% 30.27 in 10.0 mi SSE 10.4 mph - N/A   Clear
1:15 PM 42.4 °F 38.8 °F 26.1 °F 52% 30.27 in 10.0 mi SE 5.8 mph - N/A   Clear
1:35 PM 42.6 °F 37.2 °F 26.1 °F 52% 30.26 in 10.0 mi South 9.2 mph - N/A   Clear
1:55 PM 43.2 °F 37.0 °F 25.7 °F 50% 30.25 in 10.0 mi SE 11.5 mph - N/A   Clear
2:14 PM 43.9 °F 39.3 °F 25.9 °F 49% 30.23 in 10.0 mi SE 8.1 mph - N/A   Clear
2:35 PM 43.9 °F 38.8 °F 26.2 °F 50% 30.22 in 10.0 mi SE 9.2 mph - N/A   Clear
2:55 PM 44.1 °F 38.6 °F 26.4 °F 50% 30.21 in 10.0 mi SE 10.4 mph - N/A   Clear
3:14 PM 44.1 °F 39.5 °F 26.4 °F 50% 30.21 in 10.0 mi SE 8.1 mph - N/A   Clear
3:35 PM 43.2 °F 37.9 °F 27.0 °F 53% 30.21 in 10.0 mi SE 9.2 mph 16.1 mph N/A   Clear
3:55 PM 42.3 °F 37.3 °F 27.5 °F 56% 30.20 in 10.0 mi SSE 8.1 mph - N/A   Clear
4:14 PM 42.8 °F 37.5 °F 28.2 °F 56% 30.20 in 10.0 mi SE 9.2 mph - N/A   Clear
4:35 PM 41.4 °F 36.8 °F 28.4 °F 60% 30.19 in 10.0 mi SE 6.9 mph - N/A   Clear
4:55 PM 40.8 °F 36.2 °F 28.4 °F 61% 30.18 in 10.0 mi ESE 6.9 mph - N/A   Clear
5:15 PM 40.1 °F 36.1 °F 28.9 °F 64% 30.19 in 10.0 mi SE 5.8 mph - N/A   Clear
5:35 PM 39.7 °F 36.5 °F 28.9 °F 65% 30.20 in 5.0 mi SSE 4.6 mph - N/A   Haze
5:54 PM 40.1 °F 35.3 °F 29.1 °F 65% 30.21 in 7.0 mi SE 6.9 mph - N/A   Clear
6:15 PM 39.6 °F 36.3 °F 29.3 °F 67% 30.21 in 7.0 mi SSE 4.6 mph - N/A   Clear
6:35 PM 40.1 °F 36.9 °F 29.8 °F 67% 30.22 in 10.0 mi SE 4.6 mph - N/A   Clear
6:55 PM 40.1 °F 36.1 °F 30.0 °F 67% 30.21 in 10.0 mi SE 5.8 mph - N/A   Clear
7:15 PM 40.3 °F 34.9 °F 30.2 °F 67% 30.21 in 10.0 mi SE 8.1 mph - N/A   Clear
7:35 PM 40.3 °F 36.3 °F 30.6 °F 68% 30.20 in 10.0 mi SE 5.8 mph - N/A   Scattered Clouds
7:55 PM 40.3 °F 36.3 °F 30.9 °F 69% 30.20 in 10.0 mi SE 5.8 mph - N/A   Clear
8:15 PM 40.6 °F 36.0 °F 31.1 °F 69% 30.19 in 10.0 mi SE 6.9 mph - N/A   Scattered Clouds
8:34 PM 40.3 °F 35.5 °F 31.1 °F 70% 30.18 in 10.0 mi SE 6.9 mph - N/A   Scattered Clouds
8:55 PM 40.8 °F 36.2 °F 31.6 °F 70% 30.18 in 10.0 mi SE 6.9 mph - N/A   Mostly Cloudy
9:15 PM 41.4 °F 36.8 °F 31.8 °F 69% 30.17 in 10.0 mi SE 6.9 mph - N/A   Overcast
9:34 PM 41.9 °F 36.9 °F 32.0 °F 68% 30.16 in 10.0 mi SE 8.1 mph - N/A   Overcast
9:55 PM 41.9 °F 37.5 °F 32.0 °F 68% 30.17 in 10.0 mi SSE 6.9 mph - N/A   Overcast
10:15 PM 42.1 °F 38.4 °F 32.0 °F 67% 30.17 in 10.0 mi SSE 5.8 mph - N/A   Overcast
10:34 PM 41.5 °F 37.8 °F 32.9 °F 71% 30.20 in 10.0 mi SSW 5.8 mph - N/A Rain Light Rain
10:55 PM 41.2 °F - 33.6 °F 74% 30.21 in 10.0 mi Calm Calm - N/A   Overcast
11:15 PM 41.4 °F - 33.8 °F 74% 30.21 in 10.0 mi Calm Calm - N/A   Overcast
11:35 PM 41.9 °F - 33.4 °F 72% 30.21 in 10.0 mi Calm Calm - N/A   Overcast
11:55 PM 42.8 °F - 32.9 °F 68% 30.21 in 10.0 mi Calm Calm - N/A   Overcast